[[{"header":{"parameterUnit":"m.s-1","parameterCategory":1,"la1":30.2992,"la2":30.254,"lo1":-89.0895,"lo2":-89.0443,"dy":0.0025,"dx":0.0025,"nx":19,"ny":19,"refTime":"2026-05-17T03:00:00:Z","depth":0,"parameterNumber":2,"parameterNumberName":"U-component_of_WINDS"},"data":[0,0,0,-2.2493,-2.2494,-2.2518,-2.2518,-2.256,-2.256,0,0,0,0,0,0,0,0,0,0,0,-2.2493,-2.2493,-2.2493,-2.2494,-2.2518,-2.2518,-2.256,-2.256,0,0,0,0,0,0,0,0,0,0,0,-2.2492,-2.2493,-2.2494,-2.2494,-2.2518,-2.2518,-2.256,-2.2538,0,0,0,0,0,0,0,0,0,0,-2.2512,-2.2518,-2.2493,-2.2494,-2.2494,-2.2518,-2.2518,-2.2536,-2.2539,-2.2554,0,-2.2569,0,-2.2565,-2.2564,-2.2564,0,0,0,-2.2489,-2.2516,-2.2517,-2.2494,-2.2494,-2.2518,-2.2506,-2.2538,-2.2541,-2.2558,-2.2569,-2.2571,-2.2566,-2.2564,-2.2565,-2.2667,-2.2667,0,0,-2.2487,-2.25,-2.2515,-2.2519,-2.2516,-2.2505,-2.2506,-2.2539,-2.2553,-2.2569,-2.2571,-2.2567,-2.2565,-2.2565,-2.2666,-2.2667,0,0,0,-2.2487,-2.25,-2.2499,-2.2518,-2.2521,-2.2506,-2.2507,-2.2552,-2.255,-2.2572,-2.2567,-2.2565,-2.2566,-2.2665,-2.2666,-2.2714,0,0,0,-2.2486,-2.2499,-2.2499,-2.2507,-2.2521,-2.2537,-2.2519,-2.2548,-2.2551,-2.2567,-2.2565,-2.2566,-2.2664,-2.2666,-2.2711,-2.2733,0,0,0,-2.2489,-2.25,-2.2505,-2.2508,-2.2519,-2.2536,-2.2536,-2.2548,-2.2549,-2.2564,-2.2566,-2.2664,-2.2666,-2.2708,-2.2729,-2.2764,0,0,0,-2.2495,-2.2547,-2.2506,-2.2563,-2.2518,-2.2565,-2.2536,-2.257,-2.2589,-2.2565,-2.2665,-2.2666,-2.2707,-2.2726,-2.2761,-2.2795,-2.281,0,0,-2.2568,-2.2557,-2.2589,-2.2553,-2.261,-2.256,-2.2624,-2.2629,-2.2619,-2.2652,-2.2654,-2.2712,-2.2729,-2.2763,-2.2894,-2.2906,0,0,0,-2.2616,-2.2639,-2.2652,-2.267,-2.2675,-2.2681,-2.2675,-2.2677,-2.2704,-2.2638,-2.2733,-2.2743,-2.2763,-2.2778,-2.2789,-2.2805,-2.2674,-2.2674,-2.2674,-2.2737,-2.2721,-2.2773,-2.276,-2.2779,-2.2772,-2.2786,-2.2787,-2.2766,-2.2789,-2.2798,-2.2879,-2.2898,-2.2905,-2.2922,-2.2815,-2.2815,-2.2816,-2.2816,-2.2842,-2.2872,-2.2842,-2.2882,-2.2865,-2.2899,-2.2895,-2.2879,-2.2907,-2.2871,-2.2887,-2.2848,-2.292,-2.2933,-2.2819,-2.2818,-2.2818,-2.2818,-2.2817,-2.2918,-2.293,-2.2931,-2.2957,-2.2978,-2.2964,-2.2992,-2.2976,-2.2961,-2.2978,-2.2985,-2.2984,-2.2981,-2.2983,-2.2983,-2.2983,-2.2983,-2.2984,-2.2984,-2.2997,-2.2997,-2.3023,-2.3034,-2.3043,-2.3054,-2.3049,-2.3058,-2.3064,-2.305,-2.305,-2.3026,-2.293,-2.2905,-2.2988,-2.2987,-2.2987,-2.2986,-2.2986,-2.3107,-2.308,-2.312,-2.313,-2.3141,-2.3163,-2.3142,-2.3163,-2.3168,-2.3183,-2.3156,-2.3088,-2.3074,-2.3066,-2.3045,-2.3159,-2.3159,-2.3159,-2.3159,-2.3171,-2.3163,-2.3201,-2.3217,-2.3232,-2.3218,-2.3264,-2.3261,-2.3253,-2.3255,-2.3237,-2.3209,-2.3201,-2.3192,-2.3181,-2.3162,-2.3303,-2.3303,-2.3303,-2.3238,-2.323,-2.3273,-2.3264,-2.3272,-2.3279,-2.3321,-2.3342,-2.3328,-2.3308,-2.3257,-2.325,-2.3205,-2.3191,-2.3169,-2.3152,-2.3117,0,0]},{"header":{"parameterUnit":"m.s-1","parameterCategory":1,"la1":30.2992,"la2":30.254,"lo1":-89.0895,"lo2":-89.0443,"dy":0.0025,"dx":0.0025,"nx":19,"ny":19,"refTime":"2026-05-17T03:00:00:Z","depth":0,"parameterNumber":3,"parameterNumberName":"V-component_of_WINDS"},"data":[0,0,0,4.587,4.5872,4.5938,4.5938,4.6035,4.6036,0,0,0,0,0,0,0,0,0,0,0,4.586,4.5861,4.587,4.5872,4.5938,4.5938,4.6035,4.6036,0,0,0,0,0,0,0,0,0,0,0,4.5859,4.5861,4.5862,4.5872,4.5938,4.5938,4.6034,4.598,0,0,0,0,0,0,0,0,0,0,4.5913,4.5914,4.586,4.5862,4.5873,4.5938,4.5938,4.5977,4.5983,4.6011,0,4.604,0,4.604,4.6043,4.6044,0,0,0,4.5864,4.5909,4.5918,4.5862,4.5873,4.5938,4.5906,4.598,4.5987,4.6019,4.6041,4.6044,4.6041,4.6044,4.6045,4.6233,4.6234,0,0,4.586,4.5877,4.5913,4.5923,4.5916,4.5904,4.5908,4.5984,4.6008,4.6041,4.6046,4.6043,4.6045,4.6046,4.6232,4.6233,0,0,0,4.5855,4.5874,4.5882,4.592,4.5931,4.5906,4.5911,4.6005,4.6006,4.6047,4.6044,4.6045,4.6047,4.623,4.6232,4.6308,0,0,0,4.5853,4.5871,4.588,4.5891,4.593,4.5969,4.593,4.6001,4.6009,4.6043,4.6045,4.6048,4.6229,4.6231,4.6303,4.6341,0,0,0,4.5852,4.5871,4.5884,4.5892,4.5921,4.5968,4.5973,4.6002,4.6007,4.6044,4.6048,4.6228,4.6231,4.6299,4.6334,4.6394,0,0,0,4.5856,4.5952,4.5886,4.5991,4.5921,4.6016,4.5972,4.6042,4.6082,4.6046,4.6229,4.6232,4.6298,4.6329,4.6389,4.6446,4.6473,0,0,4.5985,4.5968,4.6028,4.5971,4.6082,4.6004,4.6125,4.6146,4.6134,4.62,4.6204,4.6305,4.6333,4.6393,4.6615,4.6636,0,0,0,4.6074,4.6118,4.6143,4.6183,4.6203,4.6221,4.6222,4.623,4.6285,4.6172,4.6344,4.636,4.6394,4.642,4.6438,4.6465,4.6246,4.6245,4.6245,4.6279,4.6259,4.6357,4.6345,4.6384,4.6384,4.6412,4.6422,4.6391,4.6431,4.645,4.6588,4.6619,4.6632,4.6661,4.648,4.6481,4.6481,4.6481,4.6464,4.6522,4.6478,4.6556,4.6534,4.6599,4.6602,4.6577,4.6633,4.6572,4.6601,4.6535,4.6656,4.668,4.6487,4.6486,4.6485,4.6485,4.6484,4.6595,4.6619,4.6627,4.6681,4.6725,4.6709,4.6764,4.6742,4.6721,4.675,4.6766,4.6765,4.6759,4.676,4.676,4.6761,4.6761,4.6762,4.6762,4.6726,4.6733,4.6783,4.6811,4.6832,4.6858,4.6858,4.6878,4.6894,4.6873,4.6873,4.6836,4.6673,4.6631,4.6769,4.6768,4.6767,4.6766,4.6766,4.6918,4.6871,4.6949,4.697,4.6999,4.7043,4.7014,4.7056,4.707,4.7097,4.7054,4.6938,4.6917,4.6903,4.6868,4.706,4.706,4.706,4.706,4.7027,4.7015,4.7088,4.7123,4.7156,4.7137,4.7223,4.7223,4.7215,4.7222,4.7191,4.7144,4.713,4.7118,4.7099,4.7065,4.7303,4.7303,4.7304,4.7142,4.7132,4.721,4.7203,4.7224,4.7242,4.7321,4.7361,4.7343,4.7313,4.7226,4.7215,4.7138,4.7115,4.7081,4.7052,4.6991,0,0]}]]